Other Public Products
Issued by NWS Grand Forks, ND

Home | Current Version | Previous Version | Text Only | Print | Product List | Glossary Off
Versions: 1 2 3 4 5 6 7 8 9 10 11 12 13 14 15 16 17 18 19 20 21 22 23 24 25 26 27 28 29 30 31 32 33 34 35 36 37 38 39 40 41 42 43 44 45 46 47 48 49 50

753
FPUS83 KFGF 220010
OPUFGF
PRAIRIE TO PINES WEATHER ROUNDUP
NATIONAL WEATHER SERVICE EASTERN NORTH DAKOTA/GRAND FORKS ND
700 PM CDT THU MAY 21 2015

 **SATELLITE DATA USED TO AUGMENT SKY COVER AT AUTOMATED STATIONS**
 *****  WEATHER ACROSS EASTERN NORTH DAKOTA  *****

CITY           SKY/WX    TMP DP  RH WIND       PRES   REMARKS
GRAND FORKS    SUNNY     67  36  31 N8        30.10F
6HR MIN TEMP:  64; 6HR MAX TEMP:  69;

GRAND FORKS AF SUNNY     67  34  29 N10       30.11F
GRAND CITY NWS   N/A     64 N/A N/A N6          N/A
BUXTON         NOT AVBL
DEVILS LAKE    SUNNY     70  28  21 N6        30.11S
6HR MIN TEMP:  63; 6HR MAX TEMP:  70;

FARGO          SUNNY     68  36  30 NW12      30.09F
6HR MIN TEMP:  65; 6HR MAX TEMP:  70;

WAHPETON ARPT  CLEAR     66  30  26 N10       30.10F
$$

 *****  WEATHER ACROSS CENTRAL AND WESTERN NORTH DAKOTA  *****

CITY           SKY/WX    TMP DP  RH WIND       PRES   REMARKS
JAMESTOWN      SUNNY     70  37  29 NE10      30.10F
6HR MIN TEMP:  66; 6HR MAX TEMP:  71;

BISMARCK       CLOUDY    69  41  36 E5        30.10F
6HR MIN TEMP:  67; 6HR MAX TEMP:  76;

MINOT          SUNNY     73  30  20 N10       30.09F
6HR MIN TEMP:  68; 6HR MAX TEMP:  75;

MINOT AFB      SUNNY     74  34  23 NE9       30.08F
6HR MIN TEMP:  71; 6HR MAX TEMP:  75;

GARRISON         N/A     70  37  29 SW3       30.10F
6HR MIN TEMP:  69; 6HR MAX TEMP:  76;

WILLISTON      MOSUNNY   74  29  19 S12       30.09F
6HR MIN TEMP:  70; 6HR MAX TEMP:  76;

DICKINSON      SUNNY     70  31  23 E8        30.10F
6HR MIN TEMP:  67; 6HR MAX TEMP:  72;

HETTINGER      SUNNY     67  32  27 SE13      30.14F
6HR MIN TEMP:  64; 6HR MAX TEMP:  69;

$$

 *****  OTHER OBSERVATIONS NORTHEAST NORTH DAKOTA  *****

CITY           SKY/WX    TMP DP  RH WIND       PRES   REMARKS
WALHALLA       FAIR      66  32  28 NE3       30.12S
LANGDON        FAIR      68  32  26 NE13      30.12F
CAVALIER       FAIR      66  36  32 N5        30.11F
GRAFTON        FAIR      66  37  34 N7        30.12F
CANDO          FAIR      68  28  22 NE8       30.12F
FORT TOTTEN      N/A     71  28  20 N3        29.95S
ROLLA          FAIR      68  32  26 NE7       30.14S
RUGBY          NOT AVBL
 ***** THE ABOVE OBSERVATIONS ARE NON NWS ARE NOT QUALITY
        CONTROLLED AND MAY MIS-REPORT RAIN FOR SNOW...
$$

 *****  OTHER OBSERVATIONS SOUTHEAST NORTH DAKOTA *****

CITY           SKY/WX    TMP DP  RH WIND       PRES   REMARKS
COOPERSTOWN    NOT AVBL
VALLEY CITY    FAIR      68  36  30 N6        30.11S
OAKES            N/A     70  37  30 NW12      30.10F
GWINNER        NOT AVBL
SHEYENNE NWR     N/A     71  32  24 NE7       29.95S
BUFFALO        NOT AVBL
WYNDMERE         N/A     70  28  21 N8          N/A
 ***** THE ABOVE OBSERVATIONS ARE NON NWS ARE NOT QUALITY
       CONTROLLED AND MAY MIS-REPORT RAIN FOR SNOW...
$$

  *****  WEATHER ACROSS NORTHERN MINNESOTA  *****

CITY           SKY/WX    TMP DP  RH WIND       PRES   REMARKS
FLAG ISLAND    SUNNY     61  36  39 N7        30.07F
WARROAD        SUNNY     61  39  44 E6        30.09F
ROSEAU         SUNNY     66  34  30 NW9       30.08F
HALLOCK        SUNNY     66  27  22 N9        30.10F
THF RVR FALLS  SUNNY     64  32  29 NW9       30.10F
6HR MIN TEMP:  63; 6HR MAX TEMP:  66;

HALSTAD        NOT AVBL
FOSSTON        SUNNY     66  30  26 NW9       30.09F
BAUDETTE       SUNNY     62  30  29 N9        30.08F
6HR MIN TEMP:  58; 6HR MAX TEMP:  63;

WASKISH        SUNNY     63  36  36 CALM      30.08F
CROOKSTON      SUNNY     66  36  32 N8        30.10F
$$
  *****  WEATHER ACROSS CENTRAL AND WEST MINNESOTA  *****

CITY           SKY/WX    TMP DP  RH WIND       PRES   REMARKS
BEMIDJI        SUNNY     64  32  29 N7        30.07F
PARK RAPIDS    SUNNY     68  30  24 NW10      30.06F
6HR MIN TEMP:  65; 6HR MAX TEMP:  70;

WADENA         SUNNY     66  36  32 NW9       30.07S
DETROIT LAKES  SUNNY     66  32  28 N9G16     30.09F
MOORHEAD       SUNNY     66  37  34 N9        30.10F
FERGUS FALLS   SUNNY     68  34  28 N9G16     30.09S
ELBOW LAKE     FAIR      66  35  31 N10       30.08F
6HR MIN TEMP:  64; 6HR MAX TEMP:  67;

MORRIS MN      SUNNY     70  34  26 NW14      30.07F
STAPLES        SUNNY     66  30  26 N9        30.05F
WHEATON        SUNNY     66  34  30 N14       30.11S
$$
  *****  WEATHER ELSEWHERE ACROSS MINNESOTA  *****

CITY           SKY/WX    TMP DP  RH WIND       PRES   REMARKS
DULUTH         SUNNY     65  25  22 N12G20    30.02R
6HR MIN TEMP:  59; 6HR MAX TEMP:  68;

INTRNTL FALLS  MOSUNNY   61  29  29 NW12      30.06F
6HR MIN TEMP:  59; 6HR MAX TEMP:  64;

ELY            SUNNY     61  25  25 NW9G16    30.03S
CLOQUET        SUNNY     66  21  18 NW10G18   30.02S
BRAINERD       SUNNY     65  30  27 N10       30.06S
6HR MIN TEMP:  64; 6HR MAX TEMP:  68;

HIBBING        SUNNY     64  27  24 NW12G23   30.04S
6HR MIN TEMP:  63; 6HR MAX TEMP:  67;

ALEXANDRIA     SUNNY     67  30  25 N10       30.09S
6HR MIN TEMP:  66; 6HR MAX TEMP:  69;

SAINT CLOUD    SUNNY     69  33  26 N9        30.03F
6HR MIN TEMP:  68; 6HR MAX TEMP:  71;

MINNEAPOLIS    SUNNY     71  29  21 NW16      30.02S
6HR MIN TEMP:  70; 6HR MAX TEMP:  74;

$$

  *****  WEATHER ACROSS SOUTH DAKOTA  *****

CITY           SKY/WX    TMP DP  RH WIND       PRES   REMARKS
SIOUX FALLS    MOSUNNY   71  36  27 NW10      30.10F
6HR MIN TEMP:  70; 6HR MAX TEMP:  75;

BROOKINGS      SUNNY     72  34  25 N15G23    30.11S
WATERTOWN      SUNNY     70  38  31 N14       30.10F
6HR MIN TEMP:  66; 6HR MAX TEMP:  73;

HURON          PTSUNNY   75  38  26 NW3       30.09F
6HR MIN TEMP:  72; 6HR MAX TEMP:  76;

SISSETON         N/A     71  27  19 NE15      30.08F
ABERDEEN       SUNNY     74  38  27 N10       30.09F
6HR MIN TEMP:  70; 6HR MAX TEMP:  76;

MITCHELL       SUNNY     73  34  23 W12       30.12F
PIERRE         SUNNY     70  33  25 SE8       30.12F
6HR MIN TEMP:  65; 6HR MAX TEMP:  72;

MOBRIDGE       SUNNY     74  29  19 SW6       30.09F
RAPID CITY     SUNNY     63  35  35 S10G20    30.13F
6HR MIN TEMP:  58; 6HR MAX TEMP:  63;

$$

  *****  SOME WEATHER IN NEARBY STATES *****

CITY           SKY/WX    TMP DP  RH WIND       PRES   REMARKS
GLASGOW MT     SUNNY     72  29  20 SE20G25   30.05F
6HR MIN TEMP:  66; 6HR MAX TEMP:  73;

GREAT FALLS MT MOSUNNY   69  38  32 SE14G21   29.93F
6HR MIN TEMP:  62; 6HR MAX TEMP:  71;

CHEYENNE WY    CLOUDY    51  42  71 VRB3      30.12F
6HR MIN TEMP:  44; 6HR MAX TEMP:  51;

SCOTTSBLUFF NE CLOUDY    55  43  63 SE14      30.14F
6HR MIN TEMP:  53; 6HR MAX TEMP:  57;

OMAHA NE       MOSUNNY   72  40  31 VRB6      30.14F
6HR MIN TEMP:  68; 6HR MAX TEMP:  74;

DES MOINES IA  MOSUNNY   74  37  26 NW14      30.07F
6HR MIN TEMP:  71; 6HR MAX TEMP:  77;

DAVENPORT IA   SUNNY     71  37  28 W13       30.03F
6HR MIN TEMP:  64; 6HR MAX TEMP:  73;

CHICAGO IL     SUNNY     67  36  31 W10       30.01S
6HR MIN TEMP:  62; 6HR MAX TEMP:  69;

EAU CLAIRE WI  SUNNY     70  32  24 N8        29.98R
6HR MIN TEMP:  70; 6HR MAX TEMP:  74;

LA CROSSE WI   SUNNY     72  41  32 NW8       29.96F
6HR MIN TEMP:  72; 6HR MAX TEMP:  78;

$$

  *****  SOME NATIONAL WEATHER *****

CITY           SKY/WX    TMP DP  RH WIND       PRES   REMARKS



USA.gov is the U.S. government's official web portal to all federal, state and local government web resources and services.